Wind_Speed
24 23 23 22 22 21 20 20 19 19 19 18 17 16 16 16 15 15 14 14 14 14 14 14 14 13 12 11 11 10 9 10 10 10 10 10 9 9 8 8 7 7
25 24 23 22 21 20 21 21 20 20 20 20 19 16 15 15 15 15 15 14 14 14 14 14 14 14 13 12 12 11 11 10 10 10 10 11 10 9 9 8 8 8
26 25 24 23 22 22 22 21 21 21 21 20 20 18 16 15 15 15 15 15 14 14 14 14 15 15 14 13 13 12 12 11 11 10 10 11 11 10 9 8 8 8
27 26 25 25 24 23 22 21 21 21 21 20 20 20 18 16 15 15 15 15 15 14 14 14 15 14 14 14 14 13 12 12 11 11 11 11 11 11 10 9 9 8
28 27 25 25 24 22 21 22 22 22 22 22 21 20 19 18 16 16 15 15 15 15 15 15 15 15 14 14 14 13 13 13 12 11 12 12 11 11 11 10 10 10
28 28 27 25 24 23 22 23 23 22 22 22 21 20 19 19 19 18 16 15 15 16 16 16 15 15 15 14 14 14 13 13 12 12 12 12 12 12 11 11 11 11
28 29 28 26 24 24 23 23 23 23 22 21 21 20 19 19 19 19 18 17 16 15 16 16 15 15 15 14 14 14 14 14 13 13 13 12 12 12 12 11 11 12
28 28 28 27 25 25 25 24 23 23 22 21 21 21 20 20 20 19 19 18 17 16 16 16 15 15 15 14 15 14 15 15 14 14 15 14 13 12 13 12 12 13
29 28 27 27 27 26 26 25 24 23 23 22 22 21 20 21 20 19 19 20 19 18 17 17 16 16 15 15 15 15 15 15 15 15 15 15 14 14 13 13 13 13
29 29 28 28 28 27 27 26 25 23 23 24 23 22 21 21 21 20 20 20 20 19 19 18 18 17 17 16 16 16 15 15 15 15 16 16 15 15 14 13 13 14
30 30 29 30 29 28 28 27 26 24 24 24 24 23 21 21 21 21 21 21 21 21 20 20 19 19 18 18 17 16 16 16 15 16 16 16 16 16 15 14 14 15
31 31 30 30 30 29 28 27 26 25 24 24 24 24 23 22 21 21 22 22 22 21 21 21 20 20 20 19 18 17 16 16 16 16 16 17 17 16 16 15 15 16
32 32 31 30 29 29 27 27 27 26 25 24 23 24 24 23 22 22 22 22 22 22 21 20 20 20 20 20 20 18 17 17 17 17 17 17 17 17 16 16 16 16
33 31 31 30 29 28 27 26 26 26 25 24 23 23 24 24 23 22 21 21 22 22 21 21 20 20 20 20 20 19 19 18 18 18 18 17 17 17 16 16 17 17
31 30 29 29 28 28 27 26 26 25 25 24 23 23 23 24 24 23 22 21 21 21 21 21 21 21 21 21 21 20 20 19 19 19 19 18 17 17 16 16 17 17
30 29 29 29 29 28 28 28 26 25 25 25 24 23 23 23 23 23 22 21 21 21 21 22 22 22 23 25 24 22 20 19 19 19 19 18 17 17 17 17 17 17
30 29 29 30 30 29 29 28 27 25 25 25 24 24 23 22 22 23 23 22 21 21 21 22 22 22 25 27 28 25 22 19 18 19 19 18 17 17 18 18 17 17
30 30 29 29 29 29 29 29 28 26 25 25 25 24 23 22 22 23 23 22 21 21 21 22 21 23 26 28 29 29 27 22 19 18 18 18 17 18 18 17 17 17
30 29 29 29 29 28 28 27 28 27 26 25 25 23 23 23 23 22 22 22 22 21 21 21 21 22 26 28 29 29 29 27 23 19 18 18 18 18 18 18 17 17
29 29 29 29 28 28 27 27 28 29 27 25 24 23 23 23 23 23 22 22 22 22 22 21 21 22 24 27 29 28 28 29 27 22 20 19 19 18 18 18 18 17
30 29 29 28 28 27 27 28 28 28 27 26 24 23 24 23 23 23 23 22 22 22 22 22 22 23 25 26 27 28 27 28 28 25 21 20 20 20 20 19 19 19
31 30 29 28 28 28 28 28 27 27 27 26 24 23 23 22 22 22 23 23 23 23 23 23 23 24 26 27 28 27 26 26 28 26 23 22 21 21 21 21 20 20
31 30 29 29 28 29 28 28 27 27 26 26 25 23 22 22 22 22 23 23 24 24 24 24 23 24 27 29 29 28 27 27 27 24 22 22 22 22 21 21 21 22
30 30 29 29 29 29 29 28 27 26 26 26 25 25 23 22 22 22 22 23 24 24 24 24 23 24 27 29 30 30 29 28 26 23 22 22 22 22 22 22 23 24
29 29 29 28 28 28 27 27 26 26 25 25 25 25 24 23 22 22 21 22 22 23 25 25 24 24 26 29 30 30 31 30 26 22 21 22 21 21 21 21 22 24
28 28 28 27 27 26 25 25 25 24 24 24 24 24 23 23 23 22 21 21 21 22 23 25 25 24 25 29 30 30 32 32 27 23 22 22 21 20 20 20 21 22
Wind_Direction
202 203 204 206 208 209 207 204 205 207 210 215 219 220 219 218 218 218 219 220 221 221 222 226 230 233 232 229 229 230 231 231 230 228 227 229 232 235 236 234 233 238
200 203 204 205 207 207 206 205 205 206 209 214 219 220 218 217 217 217 218 220 223 225 225 226 231 233 231 228 227 228 229 230 230 228 226 227 230 233 236 235 232 233
200 202 203 205 207 206 206 204 204 207 210 214 217 218 218 218 217 216 217 220 224 227 227 227 230 232 232 228 224 226 229 229 230 230 227 226 229 233 234 235 234 232
199 201 204 207 208 207 205 204 204 207 211 214 216 217 217 217 217 216 217 220 223 224 225 227 228 229 230 227 226 227 229 229 230 229 229 230 229 231 233 234 236 236
199 201 205 207 207 207 204 204 206 207 210 214 215 215 214 214 214 215 216 218 221 223 223 225 227 227 228 226 227 229 230 231 230 226 228 232 231 231 232 233 233 235
199 201 204 204 204 204 204 205 207 208 210 212 213 213 212 211 213 215 216 216 219 221 222 224 226 227 227 226 227 229 230 232 230 226 227 231 233 232 231 232 232 233
197 198 200 201 202 204 205 206 207 207 209 210 211 212 211 210 211 213 214 215 218 219 220 222 224 224 225 225 227 228 229 231 231 228 227 230 233 234 233 232 232 233
196 196 198 200 201 203 205 206 206 206 208 208 210 211 210 210 210 212 213 214 216 217 218 219 220 220 222 224 225 227 228 230 230 228 228 230 233 234 233 232 233 235
196 196 197 198 200 203 205 205 205 206 206 207 210 210 209 210 210 211 211 211 213 215 214 216 216 217 219 221 223 224 226 229 229 229 229 230 232 234 234 233 234 237
195 196 197 198 201 203 205 205 206 206 206 207 209 210 209 209 209 210 209 209 211 212 212 213 213 214 216 219 220 221 224 227 229 230 232 232 234 235 236 235 236 238
195 196 197 198 201 204 205 206 207 206 206 206 208 209 208 207 207 208 208 209 210 211 211 211 212 213 214 216 219 221 222 226 228 230 232 234 236 236 236 236 237 239
195 197 198 199 201 204 205 206 207 207 206 206 207 208 208 207 206 207 208 209 210 211 211 212 212 213 214 216 218 220 222 225 228 230 232 235 237 237 237 236 237 239
195 197 198 199 201 203 204 204 206 207 206 205 205 206 207 207 208 208 208 209 210 212 212 212 212 212 213 215 217 218 220 223 227 230 232 235 236 237 238 237 237 238
195 195 196 197 199 200 202 204 205 206 206 205 205 205 207 209 209 209 209 209 210 212 212 212 211 212 212 213 214 216 218 221 226 230 233 235 236 238 238 238 238 239
192 193 193 194 195 196 198 201 202 204 204 204 205 206 208 211 211 211 209 209 210 211 211 212 212 212 212 211 211 212 215 220 224 228 233 235 236 238 238 237 239 241
188 189 190 191 192 193 195 197 199 201 202 203 205 207 209 211 211 212 211 211 210 209 210 210 212 213 215 215 214 212 212 217 222 227 231 233 233 236 238 238 240 242
185 185 187 188 190 190 191 194 197 199 201 202 204 207 209 210 210 212 213 213 211 210 210 211 213 215 217 220 221 219 214 214 219 225 229 230 232 234 237 240 241 242
183 183 185 186 187 188 189 192 194 197 199 201 204 206 207 208 210 212 213 214 214 214 214 215 216 217 219 223 226 226 224 219 219 225 229 229 231 233 235 239 240 241
181 182 184 185 186 187 188 190 193 197 200 201 203 205 206 208 211 212 213 214 215 217 217 218 220 220 222 226 229 230 230 227 223 226 230 231 232 233 235 236 235 237
181 183 185 185 186 186 188 190 194 197 200 202 203 205 207 209 211 212 213 214 215 218 220 221 223 223 224 228 231 233 233 231 228 228 232 234 234 234 235 235 234 234
182 184 186 186 186 187 190 193 196 198 200 203 205 207 208 209 211 213 213 213 215 217 220 223 225 226 226 229 233 234 234 233 231 230 232 236 236 235 236 236 236 235
185 185 186 187 187 190 194 196 198 199 201 202 205 208 210 209 211 213 213 213 215 216 219 224 226 226 226 229 233 235 233 232 232 231 232 235 236 236 236 236 236 236
186 186 187 188 190 193 196 198 199 199 200 201 203 206 208 209 210 213 214 215 216 216 218 223 226 226 227 229 232 233 231 229 229 228 230 233 235 236 235 236 236 236
187 187 188 190 192 195 198 198 198 199 199 200 202 205 208 209 210 213 215 216 216 217 217 221 226 227 227 229 231 231 231 228 225 224 228 232 234 236 235 236 238 238
186 187 189 191 194 196 198 197 197 198 199 199 202 205 208 209 211 213 216 217 218 219 219 222 226 228 229 230 230 231 231 227 221 221 226 229 232 235 235 236 239 241
184 187 189 192 195 195 196 197 197 198 199 199 202 206 208 210 212 213 216 218 219 220 220 222 225 227 229 230 230 231 231 226 219 218 224 226 229 233 234 236 237 238
Height
824 827 829 832 834 836 838 840 842 844 846 847 849 850 852 853 855 856 858 859 860 861 862 863 864 865 867 867 868 869 869 870 870 871 871 871 872 872 873 873 873 873
821 824 826 829 831 833 835 837 839 841 843 845 847 848 850 851 852 854 855 857 858 859 860 862 863 864 865 866 867 867 868 868 869 869 869 870 870 871 871 871 872 872
818 821 823 826 828 830 832 834 836 838 840 842 844 846 847 849 850 852 853 854 856 857 859 860 861 862 863 864 865 866 866 867 867 868 868 868 869 869 870 870 870 870
814 817 820 822 825 827 829 832 833 835 837 839 841 843 845 847 848 849 851 852 854 855 856 858 859 860 861 862 863 864 864 865 865 866 867 867 867 868 868 869 869 869
811 813 816 819 822 824 827 828 830 832 834 836 838 840 842 844 845 847 848 850 851 853 854 855 857 858 859 860 861 862 863 863 863 864 865 865 866 866 867 867 867 867
807 810 813 816 818 821 823 825 827 829 831 833 835 837 839 840 842 844 846 847 849 850 852 853 854 855 857 858 859 860 861 861 862 862 863 863 864 864 865 865 865 866
803 805 809 812 815 818 820 822 824 826 828 830 832 834 836 837 839 841 843 844 846 848 849 850 852 853 854 855 856 857 858 859 860 860 861 861 862 863 863 863 864 864
799 802 805 808 811 814 816 819 821 823 825 827 829 831 833 835 836 838 840 841 843 845 846 848 849 850 852 853 854 855 856 857 857 858 859 859 860 860 861 862 862 862
795 798 801 804 807 810 812 815 817 819 822 824 826 828 829 831 833 835 837 838 840 842 843 845 846 847 849 850 851 852 853 854 855 855 856 857 858 858 858 859 860 860
791 794 797 800 803 806 808 811 814 816 818 820 822 824 826 828 830 832 833 835 837 838 840 841 843 844 846 847 848 850 850 851 852 853 854 854 855 856 856 857 857 857
786 789 793 795 798 801 804 807 810 812 814 816 819 821 823 824 826 828 830 831 833 835 836 838 839 841 843 844 845 847 848 849 850 850 851 852 853 853 854 854 855 855
781 785 788 791 794 797 800 803 806 808 811 813 815 817 819 821 823 824 826 828 829 831 833 834 836 838 839 841 842 844 845 846 847 847 848 849 850 850 851 852 852 852
776 779 783 787 790 793 797 799 802 805 807 809 811 813 815 817 819 821 822 824 826 828 830 831 833 834 836 837 839 841 842 843 844 845 845 846 847 847 848 849 849 850
770 775 779 783 786 790 793 796 798 801 803 806 808 810 812 813 815 817 819 821 823 824 826 828 829 831 832 834 835 837 839 840 841 842 842 843 844 844 845 846 846 847
767 771 775 779 782 786 789 792 795 798 800 803 804 806 808 810 812 814 815 817 819 821 823 824 826 827 829 830 832 833 835 837 838 839 839 840 841 842 842 843 843 844
763 767 771 775 778 781 785 788 791 794 797 799 801 803 805 807 809 811 812 814 816 817 819 821 822 823 824 826 828 830 832 834 834 835 836 837 838 839 839 840 840 840
759 763 767 770 774 777 781 784 788 791 793 796 798 800 802 804 805 807 809 810 812 814 815 817 818 819 820 822 824 826 828 830 831 832 833 834 835 835 836 837 837 837
755 760 763 767 770 773 777 780 784 787 790 792 794 796 798 800 802 804 805 807 809 810 812 813 814 815 816 818 820 822 824 826 828 829 830 830 831 832 833 833 834 834
752 756 759 763 766 770 773 777 780 783 785 788 790 793 795 797 798 800 802 804 806 807 808 809 810 811 812 814 816 818 820 822 824 826 826 827 828 828 829 830 830 831
748 752 756 759 763 766 770 773 776 779 781 784 787 789 791 793 795 797 799 800 802 804 805 806 807 808 809 810 812 814 816 818 821 822 823 824 825 825 826 826 827 827
744 748 752 756 759 763 766 769 772 774 777 781 783 785 787 789 791 793 795 797 798 800 802 803 804 805 806 807 809 811 813 815 817 819 820 820 821 822 822 823 823 824
740 744 748 752 756 759 762 765 768 770 774 777 779 782 783 785 787 789 791 793 794 796 797 798 800 801 802 804 805 808 810 812 814 815 816 817 817 818 819 819 820 820
735 740 744 748 751 754 757 760 763 766 770 773 775 778 779 781 783 785 787 788 790 791 793 794 796 797 798 800 802 804 807 809 810 812 812 813 813 814 815 816 816 816
732 736 740 744 747 750 753 756 759 763 765 768 771 773 775 777 779 781 782 784 785 787 788 790 792 793 794 796 798 800 803 805 806 808 809 809 809 810 811 812 812 812
728 732 736 740 743 746 749 753 756 759 762 764 767 769 771 773 775 777 778 780 781 783 784 786 787 789 790 791 793 796 798 800 803 804 805 805 806 807 807 808 808 808
725 729 732 736 740 743 747 750 753 756 758 761 763 765 767 769 771 773 774 776 777 779 780 782 783 784 785 786 788 791 793 795 798 799 800 801 802 803 803 804 804 804